Wind_Speed
51 54 57 59 57 59 61 61 59 58 58 58 59 57 56 57 59 60 66 71 68 67 64 64 62 62 65 62 59 57 54 53 53 54 46 42 44 41 35 36 36 44 48 47 46 45 46
50 52 52 54 57 61 64 65 66 65 64 62 62 62 60 60 59 59 59 60 65 67 66 65 64 65 66 68 62 61 59 57 55 55 52 47 46 43 34 35 33 39 48 49 47 48 48
59 58 59 60 59 59 61 62 60 66 69 69 68 66 66 64 63 62 62 60 62 61 61 60 62 62 65 67 64 60 59 58 53 51 48 50 49 43 31 31 31 34 41 49 49 51 50
61 63 66 62 59 60 62 66 68 65 64 65 68 72 70 68 66 65 66 66 62 67 65 61 63 62 68 65 65 64 63 60 55 54 51 52 49 45 35 34 34 31 35 43 51 53 55
65 70 72 65 59 57 60 61 63 68 66 67 68 68 73 72 69 67 68 67 65 66 65 68 62 62 71 66 69 67 65 64 59 55 53 53 50 48 39 37 37 33 35 41 48 53 56
75 77 77 71 66 59 57 57 61 64 65 64 66 65 68 73 74 72 71 69 68 68 67 64 66 64 65 64 67 70 65 62 57 56 54 51 46 48 43 43 39 35 34 37 42 48 51
82 85 79 73 68 61 54 54 56 62 64 66 66 67 64 67 69 75 77 74 72 69 70 68 66 66 72 73 70 70 66 67 62 56 55 55 45 46 52 48 43 35 32 34 42 45 47
89 86 77 71 65 62 55 51 53 56 59 64 67 68 69 69 70 72 76 79 76 73 71 74 72 69 69 71 75 74 68 63 62 60 56 52 54 56 53 44 43 39 38 38 40 45 46
95 89 76 68 61 56 53 52 52 55 57 61 64 67 69 69 72 72 73 78 81 78 75 74 75 73 73 72 70 71 69 68 66 63 58 54 58 63 54 52 46 45 43 43 41 41 45
96 85 74 64 58 54 53 54 54 57 60 63 65 68 70 73 72 73 77 78 83 83 81 77 78 78 78 75 71 72 72 70 69 68 69 63 60 57 55 56 48 48 51 46 39 40 41
92 78 70 62 57 53 51 53 56 59 62 66 69 75 75 75 76 80 81 84 83 86 88 86 84 80 81 78 72 74 73 73 70 67 66 64 69 64 56 55 55 53 54 47 42 38 38
87 75 66 62 58 53 51 51 54 58 63 68 68 75 79 80 83 87 88 88 89 92 89 91 89 86 84 81 77 78 76 74 74 72 66 65 66 65 62 59 58 58 50 44 42 38 37
90 78 68 63 58 53 51 51 55 59 64 68 70 72 76 80 82 82 84 87 93 93 93 94 92 90 86 83 81 81 78 74 69 66 63 65 65 64 68 65 61 58 53 44 44 39 40
91 81 74 67 61 57 54 54 56 58 59 64 65 69 72 73 74 75 75 76 80 85 89 92 93 91 88 85 82 81 81 77 74 70 69 66 64 63 66 67 64 61 59 53 50 48 48
92 83 74 67 61 58 57 57 58 59 60 62 61 63 65 65 66 66 65 65 71 72 79 83 90 95 93 89 85 84 79 74 73 72 70 69 68 65 65 71 72 64 58 55 56 51 45
94 85 76 66 61 57 54 52 52 52 51 51 51 52 56 55 56 56 54 56 61 66 73 79 85 91 95 92 87 84 80 74 71 70 70 70 71 68 69 70 71 67 65 60 54 50 45
95 86 75 67 62 56 51 48 46 46 44 45 44 44 46 46 47 48 48 52 55 58 65 74 78 86 93 93 86 83 79 75 71 70 70 68 69 69 71 65 61 66 60 57 58 53 47
96 87 74 68 61 54 48 45 43 43 40 40 39 39 41 42 42 44 45 48 52 53 59 67 74 80 90 90 89 84 82 77 75 73 68 68 72 71 66 65 64 67 65 62 60 54 50
96 88 75 69 59 51 46 43 41 40 38 35 37 36 37 38 40 42 45 49 51 51 56 63 71 76 86 90 88 86 84 83 79 77 72 71 70 71 67 65 64 61 63 61 59 56 51
96 89 75 68 59 51 46 43 40 36 35 33 33 33 33 36 39 41 45 47 50 51 55 61 70 74 81 90 91 88 85 86 83 81 79 78 70 67 61 60 63 62 64 62 60 56 52
97 88 76 68 59 51 46 43 38 35 32 31 30 31 31 34 38 40 43 46 50 51 54 60 64 70 77 86 92 92 89 87 87 85 84 80 70 66 65 64 65 63 65 66 61 58 54
97 90 77 69 60 52 46 42 38 35 33 31 30 29 31 32 36 38 41 44 48 50 53 57 62 68 74 83 89 94 93 90 88 87 86 80 73 70 69 67 65 67 64 63 65 63 59
97 91 79 68 60 53 46 41 39 36 34 33 31 30 31 32 34 37 40 43 47 49 52 56 62 66 70 78 84 91 97 94 92 90 88 82 76 72 72 71 70 68 64 60 60 60 59
99 94 81 68 60 54 46 41 39 38 35 34 33 32 33 33 35 38 40 42 46 47 50 53 60 63 67 74 80 86 90 95 96 95 92 87 82 78 78 78 76 56 65 67 63 61 58
102 94 82 68 61 55 47 43 40 39 37 35 34 34 35 34 36 39 41 44 46 47 49 52 57 61 65 72 79 83 86 89 89 90 88 87 84 82 82 78 68 63 64 66 65 63 60
101 96 83 69 62 55 49 45 43 41 40 38 37 35 37 37 36 39 42 45 47 48 50 51 55 60 64 71 78 82 85 84 87 86 85 85 84 83 82 78 67 65 68 69 70 69 65
101 96 84 70 63 57 52 49 46 44 42 41 39 39 38 40 37 39 43 46 48 49 51 52 54 60 65 68 75 80 86 88 87 85 84 85 86 84 81 78 73 70 71 73 73 62 69
99 96 83 69 63 58 55 53 50 46 43 43 41 41 41 43 39 40 41 45 48 50 53 54 56 60 66 68 72 79 85 90 90 87 87 86 85 83 82 80 78 77 74 73 69 73 74
97 95 81 69 64 60 58 56 55 52 47 43 43 41 43 46 43 42 41 44 47 48 54 56 57 60 64 67 69 75 83 91 92 91 90 88 86 84 84 83 84 80 76 74 72 71 70
Wind_Direction
299 293 288 281 274 272 270 271 270 268 266 266 264 262 260 257 255 250 248 249 248 252 252 249 248 246 247 248 246 247 249 254 256 256 256 260 261 265 264 267 261 247 240 239 240 241 240
309 306 300 292 284 273 269 266 266 264 262 262 259 259 259 259 257 255 253 250 251 251 253 252 250 248 248 247 247 251 254 255 252 254 254 257 255 257 261 269 268 251 242 240 239 240 241
312 311 311 301 291 279 271 269 266 263 261 261 260 257 254 253 255 255 253 251 250 250 248 248 249 247 240 245 248 249 249 245 244 248 253 257 255 252 254 266 266 255 243 238 238 236 238
314 313 313 306 294 285 277 268 264 262 262 261 259 255 254 252 250 251 251 251 248 246 248 245 242 241 241 244 247 248 246 247 251 252 255 255 248 247 249 256 266 263 248 241 239 237 237
313 317 315 312 301 290 280 271 265 262 259 258 257 255 253 251 248 246 246 248 247 246 244 242 245 241 242 246 243 246 246 248 252 252 254 247 245 245 248 253 258 258 252 242 241 241 240
319 317 316 311 304 295 286 274 265 262 260 258 255 255 252 250 250 246 245 244 244 245 243 241 241 242 242 242 242 242 245 247 247 251 247 242 245 243 249 250 246 252 258 254 246 246 246
321 320 315 309 301 296 287 275 268 262 260 260 257 256 253 247 247 246 244 244 243 241 242 241 240 237 236 236 239 242 244 244 246 243 244 243 239 237 241 246 247 252 260 255 247 247 246
322 321 314 306 298 293 285 276 268 261 259 258 257 255 253 249 247 248 246 243 243 238 238 239 240 241 236 234 236 239 240 242 245 241 240 240 242 240 239 246 249 250 255 256 253 246 244
325 322 315 308 299 290 281 275 267 261 258 254 252 252 251 251 249 246 247 245 242 238 234 236 236 237 238 239 238 236 236 235 238 239 233 236 243 246 246 244 248 247 251 251 252 254 250
326 322 317 310 302 291 283 274 265 260 256 255 253 249 251 249 247 246 245 244 242 237 234 234 233 233 237 238 239 240 240 239 237 238 241 242 245 247 246 245 245 245 244 247 255 255 254
329 324 319 312 305 297 286 276 266 258 255 254 251 250 251 249 247 247 245 244 242 241 236 233 234 231 235 236 237 240 240 240 241 238 241 239 239 239 241 240 241 242 241 247 256 260 262
331 327 320 314 308 301 290 278 269 262 259 256 255 253 252 252 251 248 246 245 240 239 237 235 233 232 232 233 234 238 239 239 241 243 244 243 245 246 244 242 242 243 245 249 255 258 261
333 328 323 317 310 301 292 282 274 269 263 260 257 254 253 252 253 251 248 246 243 239 237 236 233 232 232 232 231 235 237 238 241 244 244 243 242 242 239 239 242 245 245 246 248 248 245
333 329 325 318 309 300 291 284 279 275 271 267 265 261 259 258 257 256 254 250 247 243 240 237 234 233 231 232 231 234 235 235 238 239 239 240 241 239 238 237 238 236 238 238 239 238 247
333 330 326 321 312 306 299 292 286 282 278 274 272 268 265 262 260 258 255 249 244 240 238 235 230 230 231 230 230 230 232 235 235 236 236 237 239 239 236 235 234 235 237 239 240 243 255
334 331 328 324 317 310 303 297 291 286 283 279 274 268 264 261 258 255 250 245 240 235 232 230 227 227 227 229 228 229 230 231 232 233 234 236 238 238 235 234 235 235 235 235 242 244 246
334 332 329 325 320 314 307 301 296 291 287 280 275 269 264 259 255 251 246 241 238 234 231 228 225 223 224 226 227 225 227 227 228 229 229 231 234 236 238 240 238 234 233 237 239 241 243
335 333 330 327 323 316 311 306 299 293 288 282 277 270 264 258 253 248 242 238 235 230 228 226 224 221 222 223 223 223 223 224 227 228 228 231 232 235 235 234 234 232 229 230 234 235 229
336 334 332 329 325 319 314 308 302 296 291 283 276 268 262 256 250 245 241 237 233 227 225 223 221 219 219 221 222 222 221 223 226 230 231 232 231 234 234 234 234 233 230 230 231 231 232
337 336 333 331 326 322 317 312 305 298 292 283 275 269 262 256 249 243 239 236 234 228 224 222 221 217 217 219 221 223 222 224 225 228 229 231 230 233 235 233 231 232 229 230 228 228 227
339 337 334 332 327 323 320 314 307 300 292 284 276 270 264 255 248 241 238 236 235 230 224 223 222 218 215 217 218 220 222 224 226 228 229 230 230 233 234 233 231 228 226 227 224 222 223
340 338 335 332 328 324 321 315 309 301 294 286 277 270 264 256 250 244 237 235 233 229 227 223 221 220 216 216 217 218 221 223 225 228 230 230 229 228 229 231 231 228 227 226 229 226 224
339 339 335 332 328 325 322 317 311 304 296 289 280 271 262 255 249 245 239 236 234 230 225 223 222 220 217 216 217 218 220 221 224 227 230 231 231 231 228 228 229 227 227 224 225 225 227
339 339 336 332 328 325 322 318 312 305 299 291 284 274 264 255 249 246 242 237 236 232 226 222 224 221 218 215 217 217 218 221 223 225 228 229 230 231 228 227 228 222 224 224 223 222 224
338 338 336 331 327 324 320 316 311 306 300 294 286 277 269 259 251 246 243 240 235 232 229 223 222 221 219 216 215 216 215 218 220 222 224 227 228 227 225 227 228 220 222 223 222 222 223
338 337 336 330 325 322 318 314 310 304 299 292 286 278 270 264 253 247 244 240 239 233 230 225 222 221 218 217 215 214 214 215 216 218 218 220 221 224 225 224 224 224 221 220 220 219 222
336 336 334 328 323 320 316 313 309 304 298 292 286 280 273 266 258 250 245 242 238 235 232 229 222 221 220 216 217 215 212 212 215 216 217 217 220 221 222 221 220 222 221 223 223 217 223
335 334 333 326 322 318 315 312 309 304 298 293 288 281 275 269 261 253 246 242 240 235 234 231 225 222 222 218 215 216 213 212 213 214 217 218 220 220 221 220 216 221 222 224 224 223 222
334 333 330 325 321 317 315 313 309 305 301 295 289 281 273 268 264 255 249 242 239 237 233 232 229 223 222 222 217 216 215 214 211 215 217 219 219 220 219 219 217 218 221 223 226 228 226
Height
10593 10588 10584 10580 10576 10574 10572 10569 10567 10566 10565 10564 10565 10565 10567 10569 10572 10575 10580 10585 10590 10595 10600 10605 10611 10614 10616 10619 10624 10627 10631 10635 10637 10640 10642 10642 10645 10648 10653 10653 10655 10659 10662 10666 10672 10676 10680
10580 10574 10568 10562 10558 10554 10552 10551 10548 10548 10548 10548 10548 10549 10551 10553 10556 10559 10563 10566 10571 10577 10582 10588 10594 10599 10602 10604 10612 10616 10619 10623 10626 10629 10632 10633 10636 10638 10645 10648 10648 10649 10653 10658 10663 10667 10670
10566 10558 10551 10544 10539 10534 10532 10529 10529 10528 10529 10529 10530 10531 10533 10535 10539 10543 10546 10549 10554 10559 10564 10571 10577 10583 10589 10588 10598 10601 10605 10609 10614 10618 10622 10624 10626 10632 10637 10639 10639 10639 10644 10648 10652 10655 10659
10552 10543 10535 10525 10517 10512 10508 10506 10506 10508 10508 10508 10509 10511 10514 10517 10520 10524 10527 10532 10538 10542 10549 10556 10563 10569 10571 10579 10581 10585 10591 10597 10603 10608 10612 10614 10615 10622 10629 10630 10631 10632 10636 10639 10639 10643 10649
10536 10526 10516 10504 10495 10489 10484 10482 10481 10483 10485 10487 10489 10491 10493 10497 10502 10506 10507 10513 10521 10526 10532 10540 10546 10553 10553 10565 10565 10571 10578 10585 10592 10596 10600 10604 10605 10613 10619 10621 10622 10623 10626 10629 10631 10634 10638
10518 10506 10495 10484 10474 10467 10462 10459 10458 10459 10461 10464 10467 10470 10473 10476 10482 10485 10488 10494 10502 10508 10516 10523 10530 10536 10540 10548 10549 10556 10565 10572 10577 10583 10589 10592 10596 10604 10609 10609 10611 10614 10619 10622 10624 10627 10631
10497 10484 10471 10461 10452 10445 10440 10437 10436 10437 10439 10441 10444 10448 10452 10456 10460 10463 10468 10474 10482 10490 10497 10504 10511 10516 10519 10526 10533 10539 10550 10556 10564 10572 10576 10580 10588 10593 10590 10596 10604 10608 10610 10613 10616 10618 10622
10476 10460 10447 10436 10427 10421 10418 10416 10415 10416 10417 10418 10422 10425 10429 10435 10439 10442 10446 10452 10460 10469 10477 10484 10492 10498 10503 10509 10517 10523 10535 10544 10549 10555 10562 10570 10579 10572 10581 10590 10595 10600 10602 10603 10606 10609 10612
10452 10434 10421 10410 10403 10398 10395 10394 10394 10394 10395 10397 10400 10403 10406 10412 10417 10421 10425 10429 10435 10445 10457 10465 10473 10482 10486 10494 10502 10510 10519 10527 10533 10540 10550 10556 10556 10565 10576 10581 10585 10590 10591 10591 10596 10600 10604
10431 10412 10398 10388 10382 10376 10373 10372 10372 10373 10374 10376 10378 10380 10384 10388 10394 10399 10401 10404 10410 10422 10434 10446 10451 10460 10466 10476 10486 10492 10501 10509 10519 10526 10530 10542 10548 10555 10564 10570 10573 10577 10576 10582 10588 10592 10595
10409 10392 10379 10369 10363 10357 10353 10350 10349 10349 10351 10354 10357 10359 10362 10364 10372 10375 10376 10380 10389 10399 10409 10419 10426 10441 10449 10464 10471 10476 10480 10487 10501 10506 10516 10530 10528 10537 10550 10556 10556 10561 10565 10574 10579 10583 10586
10393 10377 10364 10353 10344 10338 10333 10330 10328 10328 10328 10329 10334 10335 10337 10341 10344 10345 10350 10355 10363 10371 10387 10395 10408 10417 10427 10442 10451 10452 10464 10473 10481 10492 10506 10512 10517 10529 10538 10542 10545 10546 10560 10568 10573 10575 10579
10374 10359 10347 10336 10327 10320 10315 10310 10307 10304 10303 10303 10307 10307 10308 10310 10312 10315 10321 10329 10334 10347 10361 10369 10384 10397 10409 10420 10432 10433 10446 10459 10471 10482 10494 10496 10504 10511 10518 10526 10533 10540 10550 10559 10564 10566 10565
10357 10342 10329 10318 10308 10301 10295 10290 10285 10281 10279 10278 10280 10280 10281 10283 10284 10288 10296 10302 10310 10322 10333 10346 10362 10375 10389 10397 10412 10418 10425 10441 10454 10465 10471 10481 10489 10496 10507 10514 10521 10523 10531 10542 10549 10549 10552
10340 10324 10310 10298 10288 10280 10273 10267 10262 10258 10257 10255 10256 10257 10257 10259 10259 10263 10270 10278 10282 10294 10304 10317 10333 10348 10361 10374 10388 10397 10411 10427 10438 10448 10454 10464 10472 10480 10489 10492 10497 10512 10524 10531 10533 10540 10549
10321 10306 10290 10278 10268 10260 10252 10246 10241 10237 10235 10233 10233 10233 10232 10236 10238 10242 10249 10254 10259 10268 10276 10287 10305 10322 10338 10351 10368 10383 10394 10412 10423 10432 10438 10449 10454 10465 10466 10472 10485 10501 10507 10517 10528 10535 10538
10304 10288 10274 10261 10251 10241 10234 10227 10222 10218 10217 10215 10215 10215 10215 10218 10221 10225 10231 10235 10240 10250 10259 10268 10285 10302 10316 10332 10351 10366 10381 10393 10404 10413 10420 10432 10439 10447 10451 10468 10480 10487 10502 10510 10516 10525 10530
10289 10272 10258 10246 10235 10226 10218 10212 10207 10203 10202 10199 10199 10200 10201 10203 10207 10210 10215 10218 10224 10234 10243 10253 10268 10284 10297 10315 10330 10345 10363 10376 10385 10392 10409 10418 10421 10430 10444 10452 10460 10471 10484 10492 10501 10513 10514
10276 10258 10243 10232 10222 10214 10205 10199 10194 10190 10187 10186 10185 10186 10187 10189 10192 10195 10200 10203 10209 10220 10228 10237 10249 10266 10281 10297 10313 10328 10346 10356 10370 10379 10395 10400 10411 10415 10429 10439 10451 10463 10475 10483 10490 10497 10505
10261 10244 10231 10219 10210 10201 10193 10187 10182 10178 10175 10174 10173 10174 10176 10177 10179 10182 10186 10191 10198 10207 10216 10223 10231 10251 10266 10281 10298 10315 10331 10342 10356 10363 10372 10376 10396 10407 10424 10433 10435 10448 10460 10468 10476 10487 10493
10251 10234 10219 10208 10199 10190 10183 10176 10172 10167 10164 10163 10163 10163 10165 10165 10166 10170 10174 10179 10184 10193 10202 10210 10222 10235 10249 10262 10278 10297 10312 10325 10336 10347 10354 10365 10388 10398 10406 10414 10421 10433 10443 10452 10464 10474 10481
10241 10223 10209 10198 10189 10181 10173 10167 10163 10159 10155 10153 10152 10153 10154 10155 10156 10159 10162 10165 10172 10180 10190 10200 10208 10218 10233 10246 10261 10276 10292 10306 10320 10329 10336 10354 10371 10382 10390 10399 10408 10420 10431 10443 10453 10461 10469
10230 10213 10199 10188 10179 10171 10164 10158 10154 10150 10147 10143 10142 10142 10142 10144 10145 10148 10151 10154 10158 10167 10176 10186 10192 10204 10218 10232 10244 10257 10272 10288 10300 10312 10322 10340 10356 10367 10378 10384 10390 10401 10428 10435 10443 10450 10458
10221 10204 10189 10178 10170 10162 10155 10150 10145 10140 10137 10134 10132 10131 10131 10134 10135 10136 10139 10144 10147 10154 10163 10173 10180 10192 10205 10216 10227 10238 10253 10267 10280 10294 10305 10322 10336 10348 10358 10362 10372 10411 10408 10420 10429 10435 10444
10210 10194 10180 10168 10159 10152 10145 10140 10135 10131 10127 10124 10122 10121 10119 10122 10124 10126 10128 10131 10135 10142 10149 10159 10167 10177 10189 10199 10209 10221 10235 10246 10262 10276 10292 10305 10317 10328 10339 10353 10374 10390 10396 10407 10418 10425 10431
10200 10183 10170 10158 10149 10141 10135 10129 10124 10120 10115 10112 10109 10109 10107 10108 10113 10114 10116 10119 10123 10129 10135 10145 10154 10162 10171 10183 10191 10205 10219 10235 10241 10256 10272 10285 10298 10310 10325 10342 10361 10375 10381 10386 10392 10406 10417
10189 10173 10160 10148 10138 10129 10123 10117 10112 10108 10104 10099 10098 10095 10095 10093 10098 10101 10103 10106 10110 10116 10122 10130 10140 10147 10154 10166 10178 10190 10203 10214 10227 10244 10256 10269 10279 10293 10310 10326 10344 10354 10363 10367 10376 10403 10396
10177 10161 10148 10136 10126 10118 10110 10103 10098 10094 10091 10086 10085 10082 10081 10078 10082 10085 10089 10093 10097 10103 10109 10115 10124 10131 10138 10150 10163 10175 10189 10199 10213 10228 10239 10251 10263 10280 10294 10309 10323 10332 10344 10354 10369 10371 10379
10164 10149 10135 10123 10114 10105 10097 10089 10083 10077 10074 10073 10069 10068 10065 10062 10065 10069 10074 10077 10083 10090 10093 10100 10108 10117 10125 10136 10149 10160 10172 10183 10200 10210 10220 10234 10247 10262 10277 10289 10301 10315 10330 10341 10351 10361 10373